Regional Weather Roundup
Issued by NWS Charleston, SC

Current Version | Previous Version | Graphics & Text | Print | Product List | Glossary On
Versions: 1 2 3 4 5 6 7 8 9 10 11 12 13 14 15 16 17 18 19 20 21 22 23 24 25 26 27 28 29 30 31 32 33 34 35 36 37 38 39 40 41 42 43 44 45 46 47 48 49 50
000 ASUS42 KCHS 191710 RWRCHS REGIONAL WEATHER ROUNDUP NATIONAL WEATHER SERVICE CHARLESTON SC 1200 PM EST FRI DEC 19 2014 NOTE: "FAIR" INDICATES FEW OR NO CLOUDS BELOW 12,000 FEET WITH NO SIGNIFICANT WEATHER AND/OR OBSTRUCTIONS TO VISIBILITY. NOT ALL STATIONS ARE QUALITY CONTROLLED BY THE NATIONAL WEATHER SERVICE. USE DATA WITH CAUTION...ESPECIALLY DEWPOINT OBSERVATIONS. SCZ027-030-031-034>040-042>050-191800- ...SOUTHEAST SOUTH CAROLINA... CITY SKY/WX TMP DP RH WIND PRES REMARKS N CHARLESTON PTSUNNY 58 45 62 E5 30.13F WATERFRONT PRK N/A 55 N/A N/A SE3 N/A MOUNT PLEASANT LGT RAIN 57 46 67 CALM 30.13F PINOPOLIS N/A 54 48 82 VRB5 30.05F MONCKS CORNER FAIR 59 46 63 CALM 30.13F SUMMERVILLE NOT AVBL BEAUFORT MCAS CLOUDY 57 43 59 VRB3 30.13F BEAUFORT ARPT FAIR 55 45 67 CALM 30.13F HILTON HEAD IS PTSUNNY 57 45 62 CALM 30.15F WALTERBORO MOSUNNY 55 37 50 CALM 30.14F ALLENDALE FAIR 52 41 66 CALM 30.13F ...SOUTHERN MIDLANDS AND PEE DEE... CITY SKY/WX TMP DP RH WIND PRES REMARKS GEORGETOWN NOT AVBL KINGSTREE NOT AVBL ORANGEBURG SUNNY 56 40 55 E8 30.14F BARNWELL FAIR 57 39 51 CALM 30.13F AIKEN FAIR 55 39 54 NE3 30.16F MANNING NOT AVBL COLUMBIA MOSUNNY 57 36 45 NE6 30.14F SUMTER SUNNY 56 32 40 E8 30.13F FLORENCE SUNNY 56 27 32 E8 30.15F MYRTLE BEACH SUNNY 55 34 44 VRB8 30.15F N MYRTLE BEACH SUNNY 57 31 37 NE6 30.13F $$ GAZ063-065-086>088-099>101-113>116-118-119-134>141-150-191800- ...SOUTHEAST GEORGIA... CITY SKY/WX TMP DP RH WIND PRES REMARKS SAVANNAH ARPT CLOUDY 59 40 49 N3 30.14F HUNTER AAF CLOUDY 60 42 51 NW3 30.12F FORT STEWART CLOUDY 58 40 52 CALM 30.13F STATESBORO CLOUDY 55 41 60 CALM 30.14F SYLVANIA PTSUNNY 54 43 65 CALM 30.15F CLAXTON FAIR 55 43 62 CALM 30.15F ...CSRA...CENTRAL AND FAR SOUTHEAST GEORGIA... CITY SKY/WX TMP DP RH WIND PRES REMARKS THOMSON SUNNY 58 42 54 N6 30.19F AUGUSTA-BUSH SUNNY 57 36 45 CALM 30.14F AUGUSTA-DANIEL SUNNY 58 36 43 N6 30.14F SWAINSBORO FAIR 55 45 67 CALM 30.15F VIDALIA CLOUDY 54 41 62 N3 30.16F EASTMAN FAIR 56 41 56 CALM 30.18F HAZLEHURST FAIR 54 43 65 CALM 30.15F ALMA CLOUDY 58 39 49 VRB5 30.16S WAYCROSS CLOUDY 60 44 54 CALM 30.15F JESUP FAIR 59 45 58 CALM 30.15F BAXLEY FAIR 59 41 51 N5 30.15F BRUNSWICK CLOUDY 61 37 41 CALM 30.15F SAINT SIMONS CLOUDY 60 40 47 CALM 30.14F $$ SCZ027-028-034-036>038-045-046-048>050-GAZ119-141-191800- ...LAKE AND SUPPLEMENTAL COASTAL OBSERVATIONS... STATION/POSITION TIME TEMP WIND PRES WAVE SWELL AIR SEA DIR/SP/G HT/PER HT/PER/DIR (UTC) (F) (DEG/KT/KT) (MB) (FT/S) (FT/S/D) UPR LAKE MARION NOT AVBL WINYAH BAY 1600 53 50/ 9 1021.0S LAKE MURRAY 1600 51 30/ 2/ 4 1020.7F ACE BASIN NERRS 1600 55 10/ 1 1021.0S FORT PULASKI 1700 55 56 80/ 1/ 2 1020.9F SAPELO ISLAND 1600 58 350/ 1 1021.0S $$ ANZ835-935-AMZ111-154-330-350-352-354-370-450-454-472-191800- ...C-MAN AND BUOY OBSERVATIONS... STATION/POSITION TIME TEMP WIND PRES WAVE SWELL AIR SEA DIR/SP/G HT/PER HT/PER/DIR (UTC) (F) (DEG/KT/KT) (MB) (FT/S) (FT/S/D) BUOY 41004 1700 61 67 20/ 4/ 6 1020.1F 1/10 2/10 BUOY 41008 1700 56 57 10/ 4/ 6 1020.5F 1/10 2/100/10 FOLLY BEACH CMAN 1600 54 40/ 3/ 4 1021.6R CAPERS NEARSHORE 1600 55 70/ 8/ 10 N/A FRIPP NEARSHORE NOT AVBL STATION/POSITION TIME TEMP WIND PRES WAVE SWELL AIR SEA DIR/SP/G HT/PER HT/PER/DIR (UTC) (F) (DEG/KT/KT) (MB) (FT/S) (FT/S/D) 5E ST. MARYS GA 1700 62 N/A 1/10 FRYING PAN BUOY 1700 54 62 30/ 10/ 12 1021.2F 2/ 8 2/ 70/ 8 BUOY 41025 1700 49 1020.4 2/ 8 CAPE LOOKOUT NC 1600 49 340/ 9/ 10 1021.0F BUOY 41002 1614 68 72 350/ 8/ 10 1019.1F 3/ 9 3/ 10/ 9 BUOY 41010 1700 71 76 330/ 6/ 8 1020.1F 2/11 2/ 80/11 ST AUGUSTINE FL 1700 60 340/ 3/ 3 1020.8F $$

USA.gov is the U.S. government's official web portal to all federal, state and local government web resources and services.